Home   Weather   Arlington   Past weeks
Flag for USA

Past Weather in Arlington, Texas, USA — Yesterday and Last 2 Weeks

Now
70 °F

Thundershowers. Passing clouds.


Feels Like: 73 °F
Forecast: 73 / 57 °F
Wind: 18 mph from Southeast

Location: Arlington Municipal Airport

Current Time: Oct 20, 2019 at 10:00:15 pm

Latest Report: Oct 20, 2019 at 9:34 pm


Visibility: 10 mi

Pressure: 29.59 "Hg

Humidity: 73%

Dew Point: 61 °F

Location of ArlingtonLocation

Past Weather in Arlington — Graph

°F

Arlington Temperature Yesterday

Maximum temperature yesterday: 83 °F (at 1:53 pm)
Minimum temperature yesterday: 60 °F (at 11:53 pm)
Average temperature yesterday: 69 °F

High & Low Weather Summary for the Past Weeks

 TemperatureHumidityPressure
High96 °F (Oct 6, 2:53 pm)94% (Oct 15, 3:30 am)30.30 "Hg (Oct 15, 3:30 am)
Low37 °F (Oct 12, 6:53 am)16% (Oct 12, 1:53 pm)29.59 "Hg (Oct 20, 7:53 pm)
Average68 °F61%29.95 "Hg
* Reported Oct 5 9:53 pm — Oct 20 9:08 pm, Arlington. Weather by CustomWeather, © 2019

Note: Actual official high and low records may vary slightly from our data, if they occured in-between our weather recording intervals... More about our weather records

Advertising

Arlington Weather History for the Previous 24 Hours

Scroll right to see more
 ConditionsComfort  
Time TempWeatherWind HumidityBarometerVisibility
9:08 pm
Sun, Oct 20
69 °FStrong thunderstorms. Fog.25 mph93%29.60 "Hg2 mi
7:53 pm83 °FClear.9 mph61%29.59 "Hg10 mi
6:53 pm84 °FClear.12 mph59%29.59 "Hg10 mi
5:53 pm85 °FPassing clouds.16 mph55%29.61 "Hg10 mi
4:53 pm85 °FSunny.21 mph57%29.62 "Hg10 mi
3:53 pm88 °FSunny.20 mph48%29.63 "Hg10 mi
2:53 pm88 °FSunny.20 mph45%29.64 "Hg10 mi
1:53 pm86 °FSunny.14 mph45%29.69 "Hg10 mi
12:53 pm83 °FSunny.13 mph44%29.74 "Hg10 mi
11:53 am79 °FSunny.12 mph48%29.77 "Hg10 mi
10:53 am74 °FSunny.8 mph60%29.80 "Hg10 mi
9:53 am68 °FSunny.5 mph68%29.81 "Hg10 mi
8:53 am60 °FSunny.No wind83%29.81 "Hg10 mi
7:53 am52 °FSunny.No wind93%29.80 "Hg10 mi
6:53 am52 °FClear.No wind93%29.80 "Hg10 mi
5:53 am52 °FClear.No wind93%29.80 "Hg10 mi
4:53 am54 °FClear.No wind86%29.78 "Hg10 mi
3:53 am54 °FClear.3 mph86%29.77 "Hg10 mi
2:53 am57 °FClear.No wind83%29.77 "Hg10 mi
1:53 am59 °FClear.7 mph78%29.78 "Hg10 mi
12:53 am60 °FClear.6 mph78%29.78 "Hg10 mi
11:53 pm
Sat, Oct 19
60 °FClear.5 mph80%29.79 "Hg10 mi
10:53 pm61 °FClear.No wind81%29.78 "Hg10 mi
Weather by CustomWeather, © 2019

See weather overview